www.pogodaiklimat.ru

Погода и климат >> Архив погоды >> Китай >> Хэйлунцзян >> Аньда


ПОГОДА в Аньда

  • Прогноз погоды в Аньда
  • Монитор погоды в Аньда

АРХИВ ПОГОДЫ в Аньда

Время (UTC), дата Ветер
(напр.,м/с)
 
Видим.   Явления Облачность Т
(С)
Тd
(С)
f
(%)
Тe
(С)
Тes
(С)
Комфортность P
(гПа)
Po
(гПа)
Тmin
(С)
Tmax
(С)
R
(мм)
R24
(мм)
S
(см)
21 19.05 Ю 7 30 км слаб. дождь н/о +5.5 +3.3 86 0 0 987.9 969.9
00 20.05 ЮВ 5 30 км 10/10 1500 м
[]
+6.6 +3.8 82 +2 +2 985.9 968.0 3
03 20.05 В 7 20 км слаб. дождь 10/10 1500 м
[]
+7.5 +5.8 89 +3 +3 984.3 966.5
06 20.05 С 5 14 км слаб. дождь 10/10 1500 м
[]
+8.4 +7.5 94 +5 +5 984.8 967.0 +5.4 4
09 20.05 З 3 30 км в посл. час дождь 10/10 1500 м
[]
+9.0 +6.3 83 +7 +7 987.4 969.6
12 20.05 З 4 18 км слаб. дождь 10/10 1500 м
[]
+8.8 +6.9 88 +6 +6 988.6 970.7 2
18 20.05 З 3 6000 м слаб. дождь ?/? +7.8 +6.9 94 +5 +5 987.9 970.0 +9.2 0.2
21 20.05 З 2 19 км н/о +7.6 +7.0 96 +5 +5 988.3 970.4
00 21.05 З 3 30 км слаб. дождь 9/9 1500 м
[]
+9.0 +6.3 83 +7 +7 989.1 971.3 0.8
03 21.05 СЗ 4 30 км 9/9 600 м
[]
+11.6 +8.1 79 +9 +11 990.6 972.9
06 21.05 З 5 30 км 8/8 600 м
[]
+12.3 +5.7 64 +10 +12 991.8 974.1 +7.5 0.1
09 21.05 СЗ 5 30 км {дождь} 9/9 600 м
[]
+11.8 +5.7 66 +9 +10 993.2 975.5
12 21.05 СЗ 4 30 км в посл. час дождь 8/8 600 м
[]
+10.1 +6.6 79 +7 +7 995.0 977.2
18 21.05 З 3 30 км ?/? +9.2 +4.0 70 +7 +7 995.7 977.8 +13.0
21 21.05 СЗ 4 30 км слаб. дождь н/о +9.0 +4.4 73 +6 +6 996.8 978.9
00 22.05 С 5 30 км 5/5 600 м
[]
+11.3 +3.8 60 +9 +11 997.8 980.0
03 22.05 З 4 30 км 8/8 600 м
[]
+14.2 +4.5 52 +13 +15 998.0 980.4
06 22.05 С 4 30 км 8/8 600 м
[]
+15.8 +4.5 47 +15 +17 998.6 981.0 +8.9
09 22.05 С 3 30 км ясно +16.4 +4.1 44 +16 +19 999.1 981.6
12 22.05 СВ 1 12 км ясно +11.6 +6.3 70 +12 +12 1000.8 982.9
18 22.05 штиль 0 30 км ?/? +6.1 +4.9 92 +5 +5 1002.7 984.5 +16.9
21 22.05 СВ 1 12 км н/о +6.7 +6.1 96 +6 +6 1004.3 986.1
00 23.05 ЮВ 3 30 км 3/3
[]
+15.4 +7.2 58 +15 +20 1005.2 987.5
03 23.05 В 4 30 км 8/8
[]
+19.1 +7.8 48 +20 +22 1005.1 987.6
06 23.05 Ю 4 30 км 6/6
[]
+22.8 +7.4 37 +24 +27 комфорт 1004.0 986.8 +4.6
09 23.05 Ю 3 30 км 6/6 1500 м
[]
+23.4 +7.9 37 +24 +25 комфорт 1002.8 985.6
12 23.05 ЮВ 2 30 км ясно +18.6 +8.0 50 +20 +20 1002.2 984.7
18 23.05 Ю 4 30 км ?/? +17.3 +6.8 50 +17 +17 999.1 981.6 +24.0
21 23.05 Ю 3 30 км н/о +18.2 +6.7 47 +18 +18 997.9 980.5
00 24.05 Ю 4 30 км 3/3
[]
+23.3 +7.4 36 +24 +28 комфорт 996.7 979.5
03 24.05 Ю 5 30 км ясно +27.9 +9.7 32 +28 +38 жарко 995.6 978.8
06 24.05 Ю 7 30 км ясно +32.4 +10.4 26 +32 +36 жарко 993.2 976.7 +16.4
09 24.05 Ю 5 30 км 8/8 1500 м
[]
+35.4 +6.6 17 +33 +33 жарко 991.6 975.3
12 24.05 Ю 3 30 км 8/8 1500 м
[]
+29.3 +10.9 32 +30 +30 жарко 992.0 975.1
18 24.05 ЮЗ 2 30 км ?/? +23.7 +8.6 38 +24 +24 комфорт 994.2 977.2 +36.5
21 24.05 Ю 4 30 км н/о +22.1 +8.9 43 +23 +23 комфорт 994.9 977.8
00 25.05 ЮЗ 7 30 км 3/3 600 м
[]
+26.2 +8.7 33 +26 +28 жарко 996.4 979.5
03 25.05 З 4 28 км 3/3 600 м
[]
+26.3 +14.1 47 +29 +37 жарко 998.8 981.8
06 25.05 СЗ 5 30 км 1/1 600 м
[]
+24.6 +11.9 45 +26 +33 жарко 1000.5 983.4 +21.9
09 25.05 С 4 30 км ясно +24.4 +11.0 43 +26 +28 жарко 1001.8 984.7
12 25.05 С 5 30 км 6/6 1500 м
[]
+20.6 +8.9 47 +22 +22 комфорт 1004.6 987.2
18 25.05 С 4 23 км ?/? +13.2 +8.7 74 +12 +12 1009.8 991.9 +28.2
21 25.05 С 6 30 км н/о +11.9 +10.1 89 +9 +9 1009.7 991.7
00 26.05 С 4 21 км слаб. дождь 10/10 600 м
[]
+11.8 +10.5 92 +10 +10 1012.6 994.5 0.7
03 26.05 С 4 29 км слаб. дождь 10/10 600 м
[]
+12.6 +11.2 91 +11 +11 1011.8 993.8
06 26.05 С 4 15 км дождь 10/10 600 м
[]
+12.7 +11.6 93 +11 +11 1012.6 994.6 +11.7 7
09 26.05 С 6 22 км слаб. дождь 10/10 600 м
[]
+12.3 +10.2 87 +10 +10 1011.4 993.4
12 26.05 СВ 5 23 км слаб. дождь 10/10 600 м
[]
+10.4 +8.7 89 +7 +7 1011.3 993.2 8

 

Местоположение метеостанции Аньда (Хэйлунцзян, Китай): широта 46.38 долгота 125.31 высота над уровнем моря 150 м.

В архиве по умолчанию представлена погода в Аньда за последнюю неделю. Архивные данные за месяц целиком и за предыдущие месяцы, начиная с января 2011 года, Вы можете получить, выбрав интересующий диапазон дат из раскрывающегося списка и нажав кнопку "Ввод!".


*Определитесь, кто Вы:
робот инопланетянин человек

Внимание! Время в таблицах - всемирное. Для получения местного времени необходимо прибавить поправку, которая равна 8 ч.

Смотрите также архив погоды в соседних городах и на ближайших метеорологических станциях:

Погода в Харбине (Хэйлунцзян, Китай) (132 км)
Погода в Тайлае (Хэйлунцзян, Китай) (146 км)
Погода в Цянь Горлос (Гирин, Китай) (149 км)
Погода в Цицикаре (Хэйлунцзян, Китай) (154 км)
Погода в Хайлуне (Хэйлунцзян, Китай) (171 км)
Погода в Кэшане (Хэйлунцзян, Китай) (191 км)
Погода в Шанчжи (Хэйлунцзян, Китай) (243 км)
Погода в Чанлине (Гирин, Китай) (259 км)
Погода в Тунхэ (Хэйлунцзян, Китай) (267 км)
Погода в Чанчуне (Гирин, Китай) (276 км)

Пояснения к столбцам:

Ветер - указаны скорость ветра в м/с - средняя за 10 мин, порывы в срок и между сроками (в фигурных скобках) и направление, откуда дует ветер: С - северный, СВ - северо-восточный, В - восточный, ЮВ - юго-восточный, Ю - южный, ЮЗ - юго-западный, З - западный, СЗ - северо-западный.
Видимость - горизонтальная дальность видимости в метрах или километрах. При видимости от 1 до 10 км при отсутствии осадков обычно наблюдается дымка, при ухудшении видимости до 1 км и менее - туман. В сухую погоду видимость может ухудшаться дымом, пылью или мглою.
Явления - указаны атмосферные явления, наблюдавшиеся в срок или в последний час перед сроком; фигурными скобками обозначены явления, наблюдавшиеся между сроками (за 1-3 часа до срока); квадратными скобками обозначены град или гололедные отложения с указанием их диаметра в мм.
Облачность - указаны через наклонную черту общая и нижняя облачность в баллах и высота нижней границы облаков в метрах; квадратными скобками обозначены формы облаков: Ci - перистые, Cs - перисто-слоистые, Cc - перисто-кучевые, Ac - высококучевые, As - высокослоистые, Sc - слоисто-кучевые, Ns - слоисто-дождевые, Cu - кучевые, Cb - кучево-дождевые. Подробнее классификацию облаков см. в Атласе облаков (PDF).
T - Температура воздуха - температура, измеренная на высоте 2 м над землей.
Td - Температура точки росы - температура, при понижении до которой содержащийся в воздухе водяной пар достигнет насыщения.
f - Относительная влажность воздуха - влажноcть воздуха, измеренная на высоте 2 м над землей.
Te - Эффективная температура - температура, которую ощущает одетый по сезону человек в тени. Характеристика душности погоды. При расчете учитывается влияние влажности воздуха и скорости ветра на теплоощущения человека.
Tes - Эффективная температура на солнце - температура, которую ощущает человек, с поправкой на солнечный нагрев. Характеристика знойности погоды. Зависит от высоты солнца над горизонтом, облачности и скорости ветра. Ночью, в пасмурную погоду, а также при ветре 12 м/с и более поправка равна нулю.
P - Атмосферное давление - приведенное к уровню моря атмосферное давление.
Po - Атмосферное давление - измеренное на уровне метеостанции атмосферное давление.
Tmin - Минимальная температура - минимум температуры воздуха на высоте 2 м над землей.
Tmax - Максимальная температура - максимум температуры воздуха на высоте 2 м над землей.
R - Количество осадков - Количество выпавших осадков за период времени, мм. При наведении курсора мыши на число - период времени, за который выпало указанное количество осадков.
R24 - Количество осадков - Количество выпавших осадков за 24 часа, мм.
S - Снежный покров - Высота снежного покрова, см. При наведении курсора мыши на число - состояние снежного покрова и степень покрытия местности в баллах.